TimeHST,TemperatureF,Dew PointF,Humidity,Sea Level PressureIn,VisibilityMPH,Wind Direction,Wind SpeedMPH,Gust SpeedMPH,PrecipitationIn,Events,Conditions,WindDirDegrees,DateUTC
12:58 AM,68.7,66.0,91,30.02,10.0,NW,2.3,-,N/A,,Clear,320,2013-10-28 10:58:00
1:58 AM,69.1,66.0,90,30.00,10.0,NNW,1.2,-,N/A,,Clear,330,2013-10-28 11:58:00
2:58 AM,68.9,66.2,91,29.99,10.0,NNW,1.2,-,N/A,,Clear,340,2013-10-28 12:58:00
3:58 AM,68.5,66.2,92,29.99,10.0,North,2.3,-,N/A,,Clear,350,2013-10-28 13:58:00
4:58 AM,68.4,66.0,92,29.99,10.0,North,2.3,-,N/A,,Clear,350,2013-10-28 14:58:00
5:58 AM,68.2,65.5,91,29.99,10.0,North,2.3,-,N/A,,Clear,360,2013-10-28 15:58:00
6:58 AM,68.4,65.3,90,30.01,10.0,NW,4.6,-,N/A,,Clear,310,2013-10-28 16:58:00
7:58 AM,73.4,69.1,86,30.01,10.0,Calm,Calm,-,N/A,,Clear,0,2013-10-28 17:58:00
8:58 AM,77.2,68.4,74,30.02,10.0,Variable,3.5,-,N/A,,Clear,0,2013-10-28 18:58:00
9:58 AM,79.5,68.2,68,30.03,10.0,Variable,4.6,-,N/A,,Partly Cloudy,0,2013-10-28 19:58:00
10:28 AM,80.6,68.0,65,30.05,10.0,ENE,6.9,-,N/A,,Mostly Cloudy,70,2013-10-28 20:28:00
10:48 AM,80.6,68.0,65,30.04,10.0,Variable,4.6,-,N/A,,Scattered Clouds,0,2013-10-28 20:48:00
10:58 AM,81.7,68.2,63,30.01,10.0,NNE,4.6,-,N/A,,Partly Cloudy,30,2013-10-28 20:58:00
11:58 AM,82.9,68.2,61,29.99,10.0,East,6.9,-,N/A,,Clear,90,2013-10-28 21:58:00
12:58 PM,82.4,68.0,62,29.96,10.0,East,9.2,-,N/A,,Mostly Cloudy,80,2013-10-28 22:58:00
1:58 PM,83.3,68.4,61,29.94,10.0,ENE,8.1,-,N/A,,Scattered Clouds,60,2013-10-28 23:58:00
2:58 PM,81.9,67.3,61,29.93,10.0,ENE,6.9,-,N/A,,Clear,60,2013-10-29 00:58:00
3:58 PM,81.3,68.4,65,29.93,10.0,ENE,12.7,-,N/A,,Clear,70,2013-10-29 01:58:00
4:58 PM,79.3,68.7,70,29.96,10.0,ENE,12.7,-,N/A,,Partly Cloudy,70,2013-10-29 02:58:00
5:58 PM,76.6,67.8,74,29.98,10.0,North,2.3,-,N/A,,Mostly Cloudy,10,2013-10-29 03:58:00
6:58 PM,75.6,68.0,77,30.00,10.0,Variable,1.2,-,N/A,,Scattered Clouds,0,2013-10-29 04:58:00
7:58 PM,75.0,67.5,77,30.02,10.0,Calm,Calm,-,N/A,,Partly Cloudy,0,2013-10-29 05:58:00
8:58 PM,72.9,67.1,82,30.04,10.0,WNW,4.6,-,N/A,,Partly Cloudy,290,2013-10-29 06:58:00
9:58 PM,73.0,66.7,81,30.04,10.0,Variable,2.3,-,N/A,,Clear,0,2013-10-29 07:58:00
10:58 PM,70.0,66.7,89,30.04,10.0,West,2.3,-,N/A,,Clear,260,2013-10-29 08:58:00
11:28 PM,71.6,68.0,88,30.07,10.0,WNW,3.5,-,N/A,,Mostly Cloudy,300,2013-10-29 09:28:00
11:58 PM,71.8,68.0,88,30.03,10.0,NW,2.3,-,N/A,,Overcast,320,2013-10-29 09:58:00